Time,TemperatureF,DewpointF,PressureIn,WindDirection,WindDirectionDegrees,WindSpeedMPH,WindSpeedGustMPH,Humidity,HourlyPrecipIn,Conditions,Clouds,dailyrainin,SoftwareType,DateUTC
2013-07-23 00:15:00,68.1,67.0,29.75,NE,50,3.0,4.0,97,0.00,,,0.00,weatherlink.com 1.10,2013-07-23 04:15:00,
2013-07-23 00:33:00,68.1,67.0,29.75,NE,41,2.0,3.0,97,0.00,,,0.00,weatherlink.com 1.10,2013-07-23 04:33:00,
2013-07-23 00:53:00,67.9,67.0,29.74,ENE,57,0.0,3.0,97,0.00,,,0.00,weatherlink.com 1.10,2013-07-23 04:53:00,
2013-07-23 01:11:00,67.7,67.0,29.74,ESE,117,0.0,1.0,97,0.00,,,0.00,weatherlink.com 1.10,2013-07-23 05:11:00,
2013-07-23 01:28:00,67.5,67.0,29.74,ESE,117,0.0,0.0,97,0.00,,,0.00,weatherlink.com 1.10,2013-07-23 05:28:00,
2013-07-23 01:48:00,67.4,67.0,29.73,ESE,117,0.0,0.0,97,0.00,,,0.00,weatherlink.com 1.10,2013-07-23 05:48:00,
2013-07-23 02:06:00,67.3,67.0,29.73,ESE,117,0.0,0.0,97,0.00,,,0.00,weatherlink.com 1.10,2013-07-23 06:06:00,
2013-07-23 02:24:00,67.1,66.0,29.74,ESE,117,0.0,0.0,97,0.00,,,0.00,weatherlink.com 1.10,2013-07-23 06:24:00,
2013-07-23 02:44:00,67.1,67.0,29.74,ENE,68,0.0,1.0,98,0.00,,,0.00,weatherlink.com 1.10,2013-07-23 06:44:00,
2013-07-23 03:02:00,67.0,67.0,29.74,ENE,68,0.0,0.0,98,0.00,,,0.00,weatherlink.com 1.10,2013-07-23 07:02:00,
2013-07-23 03:20:00,66.8,66.0,29.73,ENE,68,0.0,0.0,98,0.00,,,0.00,weatherlink.com 1.10,2013-07-23 07:20:00,
2013-07-23 03:38:00,67.0,67.0,29.73,ENE,68,0.0,0.0,98,0.00,,,0.00,weatherlink.com 1.10,2013-07-23 07:38:00,
2013-07-23 03:58:00,67.5,67.0,29.73,NE,34,4.0,6.0,98,0.00,,,0.00,weatherlink.com 1.10,2013-07-23 07:58:00,
2013-07-23 04:16:00,67.7,67.0,29.72,ENE,68,2.0,5.0,98,0.00,,,0.00,weatherlink.com 1.10,2013-07-23 08:16:00,
2013-07-23 04:34:00,67.8,67.0,29.72,NE,53,0.0,3.0,98,0.00,,,0.00,weatherlink.com 1.10,2013-07-23 08:34:00,
2013-07-23 04:54:00,67.9,67.0,29.72,ENE,60,1.0,4.0,98,0.00,,,0.00,weatherlink.com 1.10,2013-07-23 08:54:00,
2013-07-23 05:12:00,67.9,67.0,29.71,NE,42,2.0,3.0,98,0.01,,,0.01,weatherlink.com 1.10,2013-07-23 09:12:00,
2013-07-23 05:30:00,68.0,68.0,29.71,ENE,68,1.0,5.0,98,0.02,,,0.02,weatherlink.com 1.10,2013-07-23 09:30:00,
2013-07-23 05:50:00,68.0,68.0,29.71,ENE,76,2.0,4.0,98,0.02,,,0.02,weatherlink.com 1.10,2013-07-23 09:50:00,
2013-07-23 06:08:00,67.9,67.0,29.72,NE,53,1.0,6.0,98,0.02,,,0.02,weatherlink.com 1.10,2013-07-23 10:08:00,
2013-07-23 06:26:00,67.9,67.0,29.72,NE,53,1.0,3.0,98,0.00,,,0.02,weatherlink.com 1.10,2013-07-23 10:26:00,
2013-07-23 06:44:00,67.9,67.0,29.72,NE,54,2.0,3.0,98,0.00,,,0.02,weatherlink.com 1.10,2013-07-23 10:44:00,
2013-07-23 07:04:00,67.9,67.0,29.72,NE,51,2.0,5.0,98,0.00,,,0.02,weatherlink.com 1.10,2013-07-23 11:04:00,
2013-07-23 07:22:00,67.9,67.0,29.73,NE,56,2.0,3.0,98,0.00,,,0.02,weatherlink.com 1.10,2013-07-23 11:22:00,
2013-07-23 07:42:00,67.8,67.0,29.73,East,99,0.0,4.0,98,0.00,,,0.02,weatherlink.com 1.10,2013-07-23 11:42:00,
2013-07-23 08:00:00,67.5,67.0,29.73,ENE,70,0.0,5.0,98,0.02,,,0.04,weatherlink.com 1.10,2013-07-23 12:00:00,
2013-07-23 08:18:00,67.5,67.0,29.74,ENE,64,2.0,5.0,98,0.02,,,0.04,weatherlink.com 1.10,2013-07-23 12:18:00,
2013-07-23 08:36:00,67.7,67.0,29.74,East,96,0.0,3.0,98,0.02,,,0.04,weatherlink.com 1.10,2013-07-23 12:36:00,
2013-07-23 08:54:00,68.2,67.0,29.75,ESE,103,1.0,4.0,97,0.00,,,0.04,weatherlink.com 1.10,2013-07-23 12:54:00,
2013-07-23 09:14:00,68.6,68.0,29.75,SE,141,1.0,5.0,97,0.00,,,0.04,weatherlink.com 1.10,2013-07-23 13:14:00,
2013-07-23 09:32:00,68.8,67.0,29.75,East,90,4.0,6.0,95,0.00,,,0.04,weatherlink.com 1.10,2013-07-23 13:32:00,
2013-07-23 09:50:00,69.3,68.0,29.75,East,84,0.0,5.0,94,0.00,,,0.04,weatherlink.com 1.10,2013-07-23 13:50:00,
2013-07-23 10:10:00,69.2,68.0,29.75,ENE,71,1.0,4.0,94,0.00,,,0.04,weatherlink.com 1.10,2013-07-23 14:10:00,
2013-07-23 10:28:00,69.7,68.0,29.75,South,169,0.0,3.0,94,0.00,,,0.04,weatherlink.com 1.10,2013-07-23 14:28:00,
2013-07-23 10:46:00,70.2,68.0,29.75,SE,127,0.0,5.0,92,0.00,,,0.04,weatherlink.com 1.10,2013-07-23 14:46:00,
2013-07-23 11:06:00,70.6,68.0,29.75,East,83,4.0,4.0,92,0.00,,,0.04,weatherlink.com 1.10,2013-07-23 15:06:00,
2013-07-23 11:24:00,71.4,68.0,29.75,ENE,71,2.0,5.0,90,0.00,,,0.04,weatherlink.com 1.10,2013-07-23 15:24:00,
2013-07-23 11:42:00,73.0,68.0,29.75,NE,41,2.0,3.0,84,0.00,,,0.04,weatherlink.com 1.10,2013-07-23 15:42:00,
2013-07-23 12:00:00,73.4,69.0,29.75,East,97,2.0,3.0,85,0.00,,,0.04,weatherlink.com 1.10,2013-07-23 16:00:00,
2013-07-23 12:20:00,74.3,69.0,29.75,SE,142,1.0,4.0,84,0.00,,,0.04,weatherlink.com 1.10,2013-07-23 16:20:00,
2013-07-23 12:38:00,75.3,69.0,29.75,SE,142,2.0,5.0,80,0.00,,,0.04,weatherlink.com 1.10,2013-07-23 16:38:00,
2013-07-23 12:56:00,76.2,70.0,29.75,NE,53,0.0,6.0,80,0.00,,,0.04,weatherlink.com 1.10,2013-07-23 16:56:00,
2013-07-23 13:16:00,77.1,70.0,29.74,NNE,33,1.0,5.0,78,0.00,,,0.04,weatherlink.com 1.10,2013-07-23 17:16:00,
2013-07-23 13:34:00,76.9,69.0,29.75,East,85,1.0,7.0,76,0.00,,,0.04,weatherlink.com 1.10,2013-07-23 17:34:00,
2013-07-23 14:12:00,78.8,69.0,29.73,East,92,2.0,5.0,72,0.00,,,0.04,weatherlink.com 1.10,2013-07-23 18:12:00,
2013-07-23 14:30:00,79.4,67.0,29.73,NNE,32,2.0,7.0,67,0.00,,,0.04,weatherlink.com 1.10,2013-07-23 18:30:00,
2013-07-23 14:48:00,80.0,70.0,29.72,SE,136,3.0,5.0,71,0.00,,,0.04,weatherlink.com 1.10,2013-07-23 18:48:00,
2013-07-23 15:06:00,80.3,71.0,29.72,ENE,63,4.0,5.0,73,0.00,,,0.04,weatherlink.com 1.10,2013-07-23 19:06:00,
2013-07-23 15:26:00,79.6,69.0,29.72,East,84,0.0,5.0,70,0.00,,,0.04,weatherlink.com 1.10,2013-07-23 19:26:00,
2013-07-23 15:44:00,80.2,70.0,29.70,East,81,2.0,5.0,70,0.00,,,0.04,weatherlink.com 1.10,2013-07-23 19:44:00,
2013-07-23 16:02:00,80.9,68.0,29.70,NE,50,6.0,9.0,66,0.00,,,0.04,weatherlink.com 1.10,2013-07-23 20:02:00,
2013-07-23 16:22:00,82.3,69.0,29.69,SE,126,0.0,11.0,65,0.00,,,0.04,weatherlink.com 1.10,2013-07-23 20:22:00,
2013-07-23 16:40:00,82.1,70.0,29.68,ENE,63,2.0,9.0,66,0.00,,,0.04,weatherlink.com 1.10,2013-07-23 20:40:00,
2013-07-23 16:58:00,81.4,70.0,29.68,ENE,70,1.0,10.0,68,0.00,,,0.04,weatherlink.com 1.10,2013-07-23 20:58:00,
2013-07-23 17:18:00,82.6,69.0,29.68,ESE,117,3.0,8.0,63,0.00,,,0.04,weatherlink.com 1.10,2013-07-23 21:18:00,
2013-07-23 17:36:00,82.2,69.0,29.69,NE,36,1.0,9.0,64,0.00,,,0.04,weatherlink.com 1.10,2013-07-23 21:36:00,
2013-07-23 17:54:00,83.2,67.0,29.69,SE,125,6.0,6.0,59,0.00,,,0.04,weatherlink.com 1.10,2013-07-23 21:54:00,
2013-07-23 18:12:00,83.0,68.0,29.69,East,90,1.0,7.0,61,0.00,,,0.04,weatherlink.com 1.10,2013-07-23 22:12:00,
2013-07-23 18:50:00,78.9,67.0,29.68,East,82,0.0,4.0,68,0.00,,,0.04,weatherlink.com 1.10,2013-07-23 22:50:00,
2013-07-23 19:08:00,77.7,68.0,29.69,ENE,78,0.0,2.0,71,0.00,,,0.04,weatherlink.com 1.10,2013-07-23 23:08:00,
2013-07-23 19:28:00,76.6,68.0,29.69,NE,53,1.0,1.0,75,0.01,,,0.05,weatherlink.com 1.10,2013-07-23 23:28:00,
2013-07-23 19:46:00,73.2,69.0,29.66,East,79,0.0,4.0,86,0.03,,,0.07,weatherlink.com 1.10,2013-07-23 23:46:00,
2013-07-23 20:04:00,71.7,68.0,29.69,NE,53,8.0,8.0,88,0.03,,,0.07,weatherlink.com 1.10,2013-07-24 00:04:00,
2013-07-23 20:22:00,70.1,66.0,29.70,East,97,3.0,7.0,86,0.03,,,0.07,weatherlink.com 1.10,2013-07-24 00:22:00,
2013-07-23 20:42:00,68.4,64.0,29.69,East,82,0.0,7.0,87,0.00,,,0.07,weatherlink.com 1.10,2013-07-24 00:42:00,
2013-07-23 20:59:00,67.4,64.0,29.70,NE,53,1.0,4.0,87,0.00,,,0.07,weatherlink.com 1.10,2013-07-24 00:59:00,
2013-07-23 21:37:00,66.6,63.0,29.71,East,81,1.0,6.0,88,0.00,,,0.07,weatherlink.com 1.10,2013-07-24 01:37:00,
2013-07-23 21:55:00,66.2,63.0,29.69,ENE,77,0.0,1.0,89,0.00,,,0.07,weatherlink.com 1.10,2013-07-24 01:55:00,
2013-07-23 22:13:00,65.3,63.0,29.70,ENE,76,0.0,0.0,91,0.00,,,0.07,weatherlink.com 1.10,2013-07-24 02:13:00,
2013-07-23 22:33:00,64.6,63.0,29.70,ENE,77,0.0,0.0,93,0.00,,,0.07,weatherlink.com 1.10,2013-07-24 02:33:00,
2013-07-23 22:51:00,64.1,62.0,29.71,ENE,76,0.0,0.0,94,0.00,,,0.07,weatherlink.com 1.10,2013-07-24 02:51:00,
2013-07-23 23:09:00,63.6,62.0,29.72,ENE,76,0.0,0.0,95,0.00,,,0.07,weatherlink.com 1.10,2013-07-24 03:09:00,
2013-07-23 23:29:00,63.1,62.0,29.73,ENE,77,0.0,0.0,95,0.00,,,0.07,weatherlink.com 1.10,2013-07-24 03:29:00,
2013-07-23 23:47:00,62.8,62.0,29.73,ENE,76,0.0,0.0,96,0.00,,,0.07,weatherlink.com 1.10,2013-07-24 03:47:00,